GFSNW_prec_precacc12_072.txt.gz
Total_Precipitation_Accumulation
0.02 0.03 0.05 0.09 0.10 0.19 0.77 1.17 0.68 0.09 0.03 0.21 0.08 0.01 0.00 0.00 0.00 0.00 0.00 0.00 0.00 0.00 0.00 0.00 0.01 0.00 0.00 0.00 0.00 0.00 0.00 0.00 0.00 0.00 0.00 0.00 0.00 0.00 0.00 0.00 0.00 0.00 0.00 0.00
0.05 0.07 0.09 0.12 0.15 0.34 1.06 1.43 0.60 0.24 0.03 0.11 0.02 0.00 0.00 0.00 0.00 0.00 0.00 0.00 0.00 0.00 0.00 0.00 0.00 0.00 0.00 0.00 0.00 0.00 0.00 0.00 0.00 0.00 0.00 0.00 0.00 0.00 0.00 0.00 0.00 0.00 0.00 0.00
0.05 0.08 0.11 0.16 0.23 0.42 1.31 1.67 0.75 0.62 0.45 0.02 0.00 0.00 0.00 0.00 0.00 0.00 0.00 0.00 0.00 0.00 0.00 0.00 0.00 0.00 0.00 0.00 0.00 0.00 0.00 0.00 0.00 0.00 0.00 0.00 0.00 0.00 0.00 0.00 0.00 0.00 0.00 0.00
0.06 0.07 0.09 0.15 0.26 0.52 1.80 2.00 0.56 0.20 0.33 0.12 0.00 0.00 0.00 0.00 0.00 0.00 0.00 0.00 0.00 0.00 0.00 0.00 0.00 0.01 0.01 0.00 0.00 0.00 0.02 0.01 0.00 0.00 0.00 0.00 0.00 0.00 0.00 0.00 0.00 0.00 0.00 0.00
0.06 0.07 0.08 0.13 0.28 0.73 2.21 1.90 0.26 0.04 0.01 0.02 0.02 0.01 0.00 0.00 0.00 0.00 0.00 0.00 0.00 0.00 0.00 0.00 0.01 0.03 0.05 0.05 0.01 0.01 0.02 0.01 0.00 0.00 0.00 0.00 0.00 0.00 0.00 0.00 0.00 0.00 0.00 0.00
0.06 0.07 0.08 0.10 0.22 0.94 2.45 1.48 0.12 0.03 0.04 0.02 0.06 0.02 0.00 0.00 0.00 0.00 0.00 0.00 0.00 0.00 0.00 0.00 0.01 0.02 0.04 0.11 0.12 0.06 0.07 0.08 0.04 0.02 0.00 0.00 0.01 0.00 0.00 0.00 0.00 0.00 0.00 0.00
0.10 0.08 0.08 0.12 0.18 0.70 1.42 0.94 0.11 0.18 0.25 0.02 0.01 0.00 0.00 0.00 0.00 0.00 0.00 0.00 0.00 0.00 0.00 0.03 0.05 0.03 0.02 0.13 0.11 0.18 0.17 0.12 0.14 0.07 0.02 0.11 0.04 0.00 0.00 0.00 0.00 0.00 0.00 0.00
0.12 0.11 0.09 0.10 0.19 0.35 0.92 0.98 0.27 0.08 0.13 0.02 0.00 0.00 0.00 0.00 0.00 0.00 0.00 0.00 0.00 0.00 0.00 0.04 0.08 0.05 0.05 0.09 0.21 0.21 0.16 0.17 0.23 0.12 0.06 0.05 0.00 0.00 0.00 0.00 0.00 0.00 0.00 0.00
0.09 0.13 0.15 0.11 0.14 0.28 0.55 0.97 0.66 0.33 0.15 0.08 0.00 0.00 0.01 0.01 0.00 0.00 0.00 0.00 0.00 0.00 0.01 0.06 0.08 0.12 0.06 0.06 0.08 0.22 0.35 0.23 0.18 0.21 0.15 0.06 0.00 0.00 0.00 0.00 0.00 0.00 0.00 0.00
0.04 0.06 0.13 0.20 0.16 0.22 0.43 0.65 0.56 1.02 0.70 0.10 0.01 0.02 0.02 0.00 0.00 0.00 0.00 0.00 0.00 0.00 0.05 0.06 0.02 0.01 0.03 0.04 0.04 0.08 0.22 0.35 0.30 0.22 0.18 0.04 0.00 0.00 0.00 0.01 0.01 0.00 0.00 0.00
0.05 0.05 0.07 0.17 0.23 0.23 0.46 0.50 0.24 0.75 0.91 0.19 0.04 0.02 0.02 0.01 0.01 0.00 0.00 0.03 0.01 0.04 0.04 0.03 0.01 0.00 0.00 0.01 0.00 0.01 0.04 0.12 0.22 0.26 0.21 0.09 0.02 0.06 0.08 0.03 0.01 0.00 0.00 0.00
0.13 0.09 0.07 0.13 0.21 0.35 0.52 0.58 0.18 0.37 0.66 0.32 0.06 0.02 0.01 0.01 0.02 0.02 0.01 0.01 0.00 0.02 0.07 0.04 0.01 0.00 0.00 0.00 0.00 0.00 0.02 0.00 0.01 0.05 0.04 0.01 0.03 0.08 0.09 0.08 0.06 0.04 0.01 0.00
0.16 0.17 0.14 0.15 0.19 0.35 0.79 0.43 0.14 0.54 0.91 0.44 0.18 0.04 0.00 0.01 0.03 0.03 0.04 0.01 0.02 0.02 0.03 0.08 0.05 0.02 0.00 0.00 0.00 0.00 0.00 0.00 0.00 0.00 0.00 0.00 0.01 0.02 0.01 0.00 0.01 0.01 0.01 0.01
0.20 0.18 0.20 0.20 0.20 0.32 0.76 0.52 0.12 0.35 0.59 0.38 0.18 0.08 0.03 0.01 0.02 0.02 0.02 0.02 0.04 0.10 0.18 0.12 0.14 0.06 0.01 0.00 0.01 0.00 0.00 0.00 0.02 0.02 0.00 0.01 0.01 0.01 0.06 0.04 0.01 0.00 0.01 0.00
0.20 0.15 0.17 0.28 0.25 0.36 0.60 0.37 0.09 0.10 0.36 0.25 0.18 0.13 0.07 0.03 0.05 0.03 0.04 0.03 0.04 0.09 0.30 0.35 0.08 0.05 0.04 0.03 0.04 0.01 0.01 0.02 0.04 0.05 0.02 0.02 0.01 0.00 0.00 0.00 0.01 0.01 0.01 0.01
0.15 0.10 0.18 0.32 0.36 0.61 0.75 0.87 0.49 0.11 0.32 0.54 0.27 0.17 0.07 0.04 0.06 0.08 0.04 0.02 0.03 0.10 0.19 0.32 0.26 0.11 0.17 0.09 0.02 0.01 0.02 0.04 0.02 0.02 0.01 0.02 0.03 0.03 0.01 0.01 0.01 0.00 0.00 0.00
0.12 0.17 0.31 0.50 0.58 0.59 0.34 0.36 0.23 0.13 0.29 0.59 0.52 0.21 0.12 0.05 0.06 0.13 0.15 0.08 0.07 0.08 0.14 0.20 0.12 0.08 0.27 0.36 0.23 0.07 0.03 0.03 0.05 0.04 0.03 0.03 0.02 0.02 0.01 0.01 0.01 0.01 0.01 0.00
0.29 0.42 0.60 0.70 0.59 0.34 0.15 0.02 0.02 0.05 0.22 0.36 0.53 0.46 0.17 0.11 0.06 0.05 0.04 0.02 0.03 0.08 0.09 0.14 0.24 0.15 0.22 0.31 0.12 0.03 0.03 0.03 0.04 0.05 0.06 0.04 0.03 0.03 0.03 0.02 0.03 0.03 0.03 0.01
0.37 0.51 0.63 0.75 0.50 0.28 0.09 0.06 0.10 0.08 0.16 0.14 0.26 0.37 0.20 0.09 0.03 0.02 0.02 0.02 0.04 0.06 0.09 0.10 0.25 0.30 0.35 0.18 0.05 0.02 0.00 0.00 0.00 0.01 0.02 0.04 0.05 0.04 0.02 0.02 0.02 0.01 0.01 0.01
0.32 0.37 0.52 0.85 0.42 0.11 0.11 0.35 0.40 0.26 0.16 0.06 0.14 0.10 0.04 0.10 0.12 0.04 0.09 0.07 0.02 0.04 0.03 0.11 0.16 0.44 0.31 0.10 0.04 0.01 0.00 0.00 0.00 0.00 0.00 0.01 0.02 0.02 0.01 0.01 0.01 0.01 0.01 0.00
0.09 0.16 0.45 0.40 0.13 0.07 0.22 0.35 0.20 0.12 0.02 0.02 0.05 0.01 0.01 0.01 0.06 0.05 0.09 0.09 0.05 0.03 0.04 0.08 0.18 0.22 0.20 0.16 0.10 0.03 0.01 0.01 0.01 0.00 0.00 0.00 0.00 0.01 0.01 0.00 0.00 0.00 0.00 0.00
0.01 0.06 0.12 0.10 0.06 0.08 0.07 0.04 0.02 0.02 0.06 0.04 0.02 0.01 0.01 0.04 0.05 0.06 0.06 0.28 0.30 0.10 0.11 0.14 0.21 0.17 0.05 0.02 0.03 0.03 0.02 0.01 0.02 0.02 0.03 0.03 0.04 0.05 0.05 0.05 0.05 0.05 0.04 0.04
0.02 0.02 0.01 0.02 0.02 0.01 0.01 0.02 0.03 0.11 0.31 0.08 0.08 0.03 0.05 0.16 0.24 0.16 0.14 0.30 0.67 0.31 0.17 0.14 0.11 0.10 0.05 0.04 0.02 0.02 0.02 0.02 0.02 0.03 0.03 0.02 0.02 0.03 0.03 0.04 0.06 0.06 0.07 0.11
0.00 0.00 0.00 0.01 0.01 0.05 0.07 0.06 0.06 0.09 0.08 0.10 0.32 0.11 0.17 0.31 0.47 0.42 0.42 0.42 0.53 0.52 0.19 0.08 0.09 0.11 0.09 0.08 0.06 0.05 0.06 0.07 0.07 0.09 0.09 0.10 0.10 0.12 0.13 0.16 0.20 0.15 0.21 0.31
0.00 0.00 0.02 0.03 0.10 0.06 0.04 0.04 0.05 0.05 0.05 0.18 0.29 0.26 0.27 0.44 0.50 0.43 0.36 0.32 0.22 0.16 0.14 0.12 0.17 0.17 0.12 0.12 0.12 0.11 0.12 0.14 0.15 0.16 0.15 0.17 0.17 0.12 0.18 0.23 0.22 0.18 0.21 0.23
0.00 0.02 0.03 0.02 0.02 0.01 0.01 0.01 0.02 0.02 0.05 0.15 0.19 0.14 0.12 0.19 0.21 0.18 0.13 0.11 0.10 0.14 0.22 0.18 0.19 0.21 0.21 0.22 0.22 0.22 0.22 0.21 0.21 0.22 0.20 0.19 0.18 0.16 0.19 0.19 0.18 0.19 0.15 0.17
0.02 0.04 0.03 0.02 0.03 0.03 0.05 0.03 0.02 0.03 0.04 0.08 0.10 0.09 0.13 0.09 0.07 0.14 0.15 0.16 0.19 0.19 0.29 0.34 0.28 0.29 0.32 0.30 0.28 0.29 0.27 0.25 0.24 0.23 0.19 0.20 0.19 0.12 0.07 0.13 0.20 0.14 0.13 0.12

GFSNW_prec_precacc12_075.txt.gz
Total_Precipitation_Accumulation
0.01 0.02 0.04 0.06 0.08 0.17 0.72 1.15 0.74 0.11 0.02 0.32 0.21 0.05 0.00 0.00 0.00 0.00 0.00 0.00 0.00 0.00 0.00 0.00 0.00 0.00 0.00 0.00 0.00 0.00 0.00 0.00 0.00 0.00 0.00 0.00 0.00 0.00 0.00 0.00 0.00 0.00 0.00 0.00
0.04 0.05 0.06 0.08 0.11 0.31 0.95 1.34 0.63 0.31 0.03 0.16 0.08 0.02 0.00 0.00 0.00 0.00 0.00 0.00 0.00 0.00 0.00 0.00 0.00 0.00 0.00 0.00 0.00 0.00 0.00 0.00 0.00 0.00 0.00 0.00 0.00 0.00 0.00 0.00 0.00 0.00 0.00 0.00
0.04 0.06 0.09 0.11 0.15 0.34 1.18 1.55 0.77 0.78 0.56 0.04 0.00 0.01 0.00 0.00 0.00 0.00 0.00 0.00 0.00 0.00 0.00 0.00 0.00 0.00 0.00 0.00 0.00 0.00 0.00 0.00 0.00 0.00 0.00 0.00 0.00 0.00 0.00 0.00 0.00 0.00 0.00 0.00
0.04 0.05 0.07 0.11 0.17 0.39 1.58 1.82 0.63 0.31 0.38 0.13 0.01 0.00 0.00 0.00 0.00 0.00 0.00 0.00 0.00 0.00 0.00 0.00 0.00 0.00 0.00 0.00 0.00 0.00 0.02 0.01 0.00 0.00 0.00 0.00 0.00 0.00 0.00 0.00 0.00 0.00 0.00 0.00
0.06 0.06 0.07 0.10 0.19 0.55 1.88 1.70 0.31 0.10 0.06 0.02 0.04 0.02 0.02 0.00 0.00 0.00 0.00 0.00 0.00 0.00 0.00 0.00 0.00 0.00 0.00 0.00 0.01 0.01 0.02 0.01 0.00 0.00 0.00 0.00 0.00 0.00 0.00 0.00 0.00 0.00 0.00 0.00
0.07 0.07 0.08 0.10 0.19 0.71 1.89 1.16 0.15 0.10 0.09 0.03 0.12 0.05 0.01 0.00 0.00 0.00 0.00 0.00 0.00 0.00 0.00 0.00 0.00 0.01 0.00 0.01 0.03 0.05 0.07 0.08 0.05 0.02 0.00 0.00 0.01 0.00 0.00 0.00 0.00 0.00 0.00 0.00
0.13 0.10 0.10 0.12 0.19 0.55 0.98 0.62 0.10 0.22 0.29 0.05 0.02 0.00 0.00 0.00 0.00 0.00 0.00 0.00 0.00 0.00 0.00 0.02 0.03 0.01 0.00 0.01 0.02 0.08 0.17 0.13 0.14 0.07 0.02 0.10 0.03 0.00 0.00 0.00 0.00 0.00 0.00 0.00
0.16 0.15 0.14 0.14 0.22 0.36 0.59 0.63 0.27 0.09 0.14 0.08 0.02 0.00 0.00 0.00 0.00 0.00 0.00 0.00 0.00 0.00 0.00 0.01 0.00 0.00 0.00 0.00 0.00 0.04 0.15 0.19 0.26 0.13 0.06 0.05 0.00 0.00 0.00 0.00 0.00 0.00 0.00 0.00
0.11 0.15 0.16 0.16 0.19 0.31 0.46 0.62 0.53 0.32 0.19 0.10 0.01 0.00 0.00 0.00 0.00 0.02 0.00 0.01 0.01 0.01 0.03 0.03 0.04 0.01 0.01 0.01 0.01 0.03 0.20 0.23 0.20 0.20 0.16 0.06 0.00 0.00 0.00 0.00 0.00 0.00 0.00 0.00
0.05 0.09 0.17 0.20 0.19 0.26 0.44 0.54 0.43 0.86 0.70 0.10 0.00 0.00 0.02 0.00 0.01 0.03 0.00 0.03 0.02 0.01 0.06 0.07 0.03 0.01 0.00 0.01 0.03 0.02 0.12 0.30 0.28 0.22 0.15 0.03 0.00 0.00 0.01 0.02 0.01 0.00 0.00 0.00
0.06 0.05 0.10 0.19 0.24 0.25 0.47 0.51 0.21 0.49 0.81 0.22 0.03 0.00 0.00 0.00 0.01 0.03 0.01 0.07 0.04 0.03 0.04 0.02 0.01 0.00 0.00 0.00 0.00 0.01 0.06 0.13 0.19 0.22 0.20 0.09 0.02 0.08 0.12 0.04 0.01 0.00 0.00 0.00
0.13 0.10 0.07 0.11 0.21 0.32 0.50 0.70 0.24 0.21 0.54 0.38 0.09 0.02 0.00 0.00 0.00 0.01 0.04 0.02 0.00 0.00 0.00 0.00 0.00 0.00 0.00 0.00 0.00 0.00 0.02 0.01 0.01 0.04 0.04 0.01 0.02 0.08 0.09 0.08 0.06 0.04 0.01 0.00
0.14 0.17 0.15 0.10 0.14 0.32 0.81 0.61 0.23 0.36 0.74 0.52 0.19 0.04 0.00 0.00 0.00 0.01 0.02 0.01 0.01 0.01 0.01 0.01 0.00 0.01 0.00 0.00 0.00 0.00 0.00 0.00 0.00 0.00 0.00 0.00 0.00 0.00 0.00 0.00 0.01 0.01 0.01 0.00
0.18 0.18 0.23 0.15 0.13 0.31 0.94 0.68 0.20 0.17 0.38 0.41 0.18 0.02 0.01 0.01 0.02 0.01 0.02 0.02 0.05 0.08 0.14 0.05 0.02 0.02 0.01 0.00 0.01 0.00 0.00 0.00 0.00 0.00 0.00 0.00 0.00 0.00 0.00 0.00 0.00 0.00 0.01 0.00
0.24 0.22 0.24 0.24 0.23 0.47 0.74 0.46 0.15 0.05 0.28 0.29 0.16 0.08 0.04 0.03 0.05 0.03 0.04 0.03 0.04 0.07 0.12 0.15 0.05 0.04 0.03 0.03 0.04 0.01 0.01 0.02 0.04 0.01 0.01 0.01 0.00 0.00 0.00 0.00 0.01 0.01 0.01 0.01
0.23 0.24 0.28 0.35 0.43 0.62 0.68 0.91 0.54 0.09 0.24 0.52 0.25 0.15 0.06 0.04 0.06 0.08 0.04 0.02 0.03 0.09 0.11 0.12 0.15 0.09 0.16 0.07 0.02 0.01 0.02 0.04 0.02 0.02 0.01 0.02 0.03 0.03 0.01 0.01 0.01 0.00 0.00 0.01
0.18 0.29 0.38 0.52 0.52 0.30 0.28 0.32 0.22 0.11 0.25 0.59 0.51 0.20 0.12 0.05 0.07 0.17 0.22 0.13 0.11 0.11 0.11 0.08 0.06 0.06 0.24 0.34 0.23 0.07 0.03 0.03 0.05 0.04 0.03 0.03 0.02 0.02 0.01 0.01 0.01 0.02 0.01 0.01
0.29 0.41 0.52 0.61 0.39 0.27 0.17 0.02 0.00 0.05 0.23 0.37 0.53 0.47 0.24 0.10 0.08 0.19 0.25 0.28 0.23 0.23 0.18 0.09 0.08 0.10 0.18 0.26 0.11 0.03 0.03 0.03 0.04 0.05 0.06 0.04 0.03 0.03 0.03 0.02 0.03 0.04 0.05 0.04
0.39 0.58 0.82 0.98 0.59 0.38 0.13 0.08 0.10 0.09 0.16 0.15 0.26 0.42 0.52 0.14 0.08 0.09 0.19 0.16 0.16 0.12 0.09 0.07 0.10 0.13 0.28 0.18 0.05 0.02 0.00 0.01 0.00 0.01 0.02 0.04 0.06 0.05 0.03 0.03 0.03 0.02 0.01 0.01
0.50 0.55 0.76 1.01 0.51 0.14 0.16 0.41 0.43 0.28 0.16 0.07 0.15 0.15 0.27 0.18 0.07 0.07 0.10 0.03 0.02 0.05 0.02 0.05 0.07 0.26 0.28 0.11 0.04 0.01 0.00 0.00 0.00 0.00 0.00 0.01 0.04 0.05 0.03 0.04 0.05 0.02 0.01 0.00
0.17 0.31 0.55 0.48 0.16 0.08 0.22 0.39 0.26 0.18 0.08 0.09 0.17 0.11 0.14 0.09 0.01 0.03 0.04 0.10 0.04 0.02 0.02 0.04 0.12 0.17 0.15 0.11 0.08 0.03 0.01 0.01 0.01 0.01 0.01 0.01 0.02 0.02 0.03 0.02 0.01 0.01 0.00 0.01
0.05 0.13 0.16 0.13 0.08 0.11 0.10 0.07 0.07 0.04 0.07 0.07 0.06 0.05 0.03 0.11 0.01 0.01 0.04 0.21 0.19 0.08 0.10 0.08 0.07 0.11 0.04 0.02 0.03 0.03 0.02 0.02 0.02 0.03 0.04 0.04 0.05 0.07 0.07 0.07 0.06 0.06 0.05 0.06
0.00 0.01 0.00 0.00 0.01 0.01 0.01 0.02 0.03 0.08 0.15 0.06 0.03 0.00 0.00 0.02 0.03 0.02 0.05 0.15 0.41 0.26 0.17 0.10 0.07 0.08 0.02 0.03 0.02 0.02 0.03 0.02 0.03 0.03 0.04 0.04 0.04 0.04 0.05 0.06 0.08 0.08 0.09 0.13
0.00 0.00 0.00 0.00 0.01 0.03 0.06 0.05 0.05 0.09 0.08 0.09 0.18 0.05 0.10 0.12 0.15 0.15 0.20 0.15 0.16 0.33 0.16 0.06 0.07 0.09 0.08 0.07 0.06 0.05 0.06 0.07 0.07 0.09 0.09 0.09 0.09 0.11 0.13 0.15 0.19 0.14 0.19 0.29
0.00 0.00 0.01 0.02 0.08 0.06 0.05 0.05 0.05 0.05 0.06 0.17 0.24 0.21 0.19 0.23 0.23 0.15 0.14 0.12 0.11 0.09 0.06 0.07 0.12 0.13 0.10 0.11 0.11 0.11 0.12 0.13 0.14 0.15 0.14 0.16 0.15 0.11 0.16 0.21 0.20 0.16 0.19 0.21
0.00 0.01 0.02 0.01 0.02 0.02 0.02 0.02 0.03 0.04 0.07 0.15 0.16 0.12 0.10 0.16 0.18 0.12 0.09 0.05 0.06 0.08 0.13 0.13 0.14 0.15 0.15 0.17 0.18 0.20 0.21 0.20 0.21 0.21 0.20 0.19 0.17 0.15 0.17 0.16 0.16 0.17 0.14 0.15
0.01 0.02 0.03 0.02 0.02 0.03 0.04 0.02 0.02 0.03 0.05 0.10 0.12 0.11 0.13 0.10 0.08 0.14 0.14 0.14 0.16 0.18 0.28 0.32 0.26 0.27 0.29 0.27 0.25 0.26 0.25 0.23 0.23 0.22 0.20 0.19 0.19 0.13 0.08 0.11 0.18 0.14 0.14 0.12

GFSNW_prec_precacc12_078.txt.gz
Total_Precipitation_Accumulation
0.02 0.03 0.05 0.06 0.05 0.12 0.49 0.87 0.64 0.13 0.06 0.35 0.33 0.13 0.01 0.00 0.00 0.00 0.00 0.00 0.00 0.00 0.00 0.00 0.00 0.00 0.00 0.00 0.00 0.00 0.00 0.00 0.00 0.00 0.00 0.00 0.00 0.00 0.00 0.00 0.00 0.00 0.00 0.00
0.02 0.02 0.04 0.06 0.07 0.22 0.63 1.00 0.53 0.34 0.11 0.19 0.12 0.09 0.01 0.00 0.00 0.00 0.00 0.00 0.00 0.00 0.00 0.00 0.00 0.00 0.00 0.00 0.00 0.00 0.00 0.00 0.00 0.00 0.00 0.00 0.00 0.00 0.00 0.00 0.00 0.00 0.00 0.00
0.03 0.04 0.07 0.11 0.11 0.24 0.85 1.19 0.63 0.72 0.68 0.14 0.01 0.04 0.02 0.00 0.00 0.00 0.00 0.00 0.00 0.00 0.00 0.00 0.00 0.00 0.00 0.00 0.00 0.00 0.00 0.00 0.00 0.00 0.00 0.00 0.00 0.00 0.00 0.00 0.00 0.00 0.00 0.00
0.03 0.03 0.06 0.11 0.16 0.31 1.18 1.41 0.57 0.29 0.41 0.22 0.07 0.02 0.01 0.00 0.00 0.00 0.00 0.00 0.00 0.00 0.00 0.00 0.00 0.00 0.00 0.00 0.00 0.00 0.01 0.01 0.00 0.00 0.00 0.00 0.00 0.00 0.00 0.00 0.00 0.00 0.00 0.00
0.04 0.05 0.05 0.09 0.17 0.45 1.35 1.26 0.28 0.13 0.08 0.07 0.10 0.09 0.05 0.00 0.00 0.00 0.00 0.00 0.00 0.00 0.00 0.00 0.00 0.00 0.00 0.00 0.01 0.01 0.01 0.01 0.00 0.00 0.00 0.00 0.00 0.00 0.00 0.00 0.00 0.00 0.00 0.00
0.07 0.07 0.07 0.08 0.16 0.60 1.32 0.76 0.13 0.16 0.13 0.04 0.22 0.21 0.02 0.00 0.00 0.00 0.00 0.00 0.00 0.00 0.00 0.00 0.00 0.00 0.00 0.01 0.01 0.01 0.02 0.07 0.04 0.01 0.00 0.00 0.01 0.00 0.00 0.00 0.00 0.00 0.00 0.00
0.14 0.12 0.11 0.13 0.18 0.46 0.72 0.34 0.09 0.21 0.27 0.11 0.05 0.03 0.01 0.01 0.00 0.00 0.00 0.00 0.00 0.00 0.00 0.00 0.00 0.00 0.00 0.01 0.02 0.03 0.03 0.07 0.13 0.07 0.02 0.08 0.02 0.00 0.00 0.00 0.00 0.00 0.00 0.00
0.19 0.19 0.17 0.17 0.23 0.34 0.47 0.41 0.20 0.09 0.14 0.10 0.05 0.03 0.02 0.01 0.00 0.00 0.00 0.00 0.00 0.00 0.01 0.02 0.01 0.00 0.00 0.00 0.00 0.01 0.02 0.03 0.10 0.10 0.06 0.04 0.00 0.00 0.00 0.00 0.00 0.00 0.00 0.00
0.14 0.19 0.21 0.22 0.25 0.33 0.44 0.48 0.34 0.23 0.20 0.11 0.01 0.03 0.04 0.02 0.01 0.03 0.01 0.04 0.02 0.02 0.07 0.07 0.05 0.01 0.00 0.01 0.01 0.02 0.01 0.02 0.05 0.09 0.15 0.06 0.00 0.00 0.00 0.00 0.00 0.00 0.00 0.00
0.08 0.14 0.20 0.22 0.26 0.33 0.47 0.54 0.37 0.52 0.39 0.09 0.02 0.02 0.04 0.02 0.03 0.08 0.03 0.08 0.05 0.04 0.10 0.10 0.04 0.01 0.00 0.00 0.03 0.02 0.03 0.04 0.05 0.05 0.08 0.03 0.00 0.00 0.01 0.02 0.01 0.00 0.00 0.00
0.07 0.08 0.12 0.19 0.24 0.30 0.55 0.59 0.25 0.38 0.44 0.16 0.04 0.01 0.02 0.02 0.03 0.07 0.05 0.17 0.13 0.10 0.09 0.04 0.02 0.01 0.00 0.00 0.01 0.02 0.04 0.03 0.04 0.04 0.07 0.07 0.02 0.09 0.12 0.04 0.01 0.00 0.00 0.00
0.11 0.10 0.08 0.11 0.22 0.29 0.49 0.69 0.29 0.24 0.38 0.27 0.10 0.02 0.01 0.01 0.01 0.06 0.09 0.04 0.00 0.00 0.02 0.01 0.00 0.00 0.00 0.00 0.00 0.00 0.01 0.01 0.02 0.01 0.02 0.01 0.03 0.08 0.09 0.08 0.06 0.04 0.01 0.00
0.15 0.16 0.12 0.10 0.17 0.35 0.57 0.56 0.26 0.42 0.70 0.32 0.17 0.07 0.00 0.00 0.01 0.02 0.04 0.01 0.01 0.00 0.01 0.01 0.01 0.00 0.00 0.00 0.00 0.00 0.00 0.00 0.01 0.01 0.00 0.00 0.00 0.00 0.00 0.00 0.01 0.01 0.00 0.00
0.18 0.24 0.20 0.13 0.16 0.36 0.84 0.63 0.24 0.21 0.32 0.22 0.09 0.02 0.06 0.03 0.02 0.01 0.00 0.01 0.04 0.06 0.07 0.04 0.02 0.01 0.00 0.00 0.00 0.00 0.00 0.00 0.00 0.00 0.00 0.00 0.00 0.00 0.00 0.00 0.00 0.00 0.00 0.00
0.22 0.30 0.27 0.25 0.25 0.56 0.83 0.49 0.19 0.06 0.08 0.15 0.05 0.04 0.01 0.03 0.05 0.03 0.02 0.05 0.06 0.08 0.13 0.14 0.05 0.02 0.03 0.02 0.02 0.01 0.01 0.01 0.03 0.01 0.01 0.00 0.00 0.00 0.00 0.00 0.01 0.01 0.01 0.01
0.26 0.34 0.35 0.34 0.51 0.76 0.71 1.00 0.72 0.15 0.08 0.26 0.18 0.12 0.04 0.02 0.05 0.07 0.04 0.06 0.09 0.13 0.14 0.13 0.14 0.07 0.13 0.05 0.01 0.00 0.01 0.03 0.01 0.01 0.01 0.02 0.03 0.03 0.01 0.01 0.01 0.00 0.00 0.01
0.29 0.40 0.41 0.52 0.66 0.32 0.26 0.29 0.30 0.13 0.08 0.38 0.47 0.17 0.10 0.05 0.07 0.17 0.24 0.19 0.20 0.18 0.19 0.09 0.05 0.05 0.18 0.28 0.21 0.07 0.02 0.03 0.03 0.03 0.03 0.03 0.02 0.02 0.01 0.01 0.01 0.02 0.01 0.01
0.41 0.50 0.49 0.58 0.39 0.34 0.19 0.02 0.00 0.01 0.18 0.35 0.52 0.46 0.24 0.10 0.09 0.21 0.27 0.32 0.29 0.31 0.25 0.12 0.03 0.07 0.15 0.22 0.09 0.03 0.02 0.03 0.04 0.05 0.06 0.04 0.03 0.03 0.03 0.02 0.03 0.04 0.05 0.05
0.57 0.64 0.78 0.87 0.55 0.41 0.13 0.07 0.08 0.09 0.17 0.15 0.26 0.42 0.56 0.16 0.10 0.10 0.24 0.23 0.30 0.24 0.15 0.12 0.12 0.08 0.13 0.11 0.03 0.01 0.01 0.01 0.00 0.01 0.02 0.04 0.05 0.05 0.03 0.03 0.03 0.02 0.02 0.02
0.61 0.61 0.78 1.01 0.50 0.13 0.17 0.44 0.45 0.29 0.17 0.07 0.16 0.15 0.28 0.20 0.12 0.12 0.23 0.17 0.16 0.15 0.13 0.08 0.12 0.10 0.08 0.03 0.01 0.01 0.01 0.00 0.01 0.01 0.00 0.01 0.04 0.05 0.04 0.06 0.08 0.08 0.07 0.05
0.24 0.38 0.63 0.58 0.20 0.09 0.24 0.42 0.28 0.19 0.10 0.10 0.18 0.11 0.16 0.14 0.05 0.05 0.13 0.14 0.09 0.05 0.07 0.09 0.09 0.07 0.06 0.02 0.01 0.02 0.01 0.01 0.01 0.01 0.01 0.01 0.02 0.03 0.05 0.05 0.06 0.06 0.08 0.09
0.06 0.17 0.25 0.17 0.10 0.13 0.11 0.09 0.09 0.06 0.09 0.09 0.10 0.11 0.11 0.20 0.04 0.03 0.06 0.13 0.18 0.08 0.09 0.08 0.06 0.09 0.03 0.01 0.01 0.01 0.01 0.01 0.01 0.02 0.02 0.03 0.04 0.07 0.08 0.09 0.11 0.12 0.12 0.12
0.00 0.01 0.00 0.00 0.01 0.01 0.01 0.02 0.03 0.04 0.05 0.05 0.06 0.06 0.11 0.09 0.02 0.02 0.01 0.11 0.40 0.21 0.15 0.09 0.05 0.06 0.02 0.01 0.01 0.02 0.02 0.02 0.02 0.03 0.04 0.04 0.04 0.04 0.05 0.06 0.10 0.10 0.11 0.17
0.00 0.00 0.00 0.00 0.00 0.02 0.04 0.04 0.04 0.07 0.06 0.05 0.03 0.01 0.06 0.04 0.04 0.07 0.10 0.11 0.13 0.19 0.12 0.04 0.05 0.07 0.06 0.05 0.05 0.04 0.05 0.05 0.06 0.07 0.07 0.07 0.07 0.09 0.10 0.12 0.15 0.11 0.15 0.22
0.00 0.00 0.01 0.02 0.06 0.06 0.06 0.05 0.05 0.05 0.06 0.11 0.13 0.12 0.12 0.12 0.11 0.07 0.06 0.07 0.04 0.02 0.03 0.05 0.08 0.10 0.09 0.10 0.10 0.09 0.09 0.09 0.10 0.11 0.10 0.12 0.13 0.10 0.14 0.18 0.17 0.14 0.16 0.18
0.00 0.01 0.02 0.01 0.02 0.03 0.03 0.03 0.04 0.05 0.08 0.13 0.13 0.09 0.06 0.07 0.05 0.02 0.02 0.02 0.02 0.03 0.04 0.07 0.08 0.08 0.10 0.12 0.13 0.15 0.16 0.16 0.16 0.16 0.16 0.16 0.16 0.14 0.16 0.16 0.16 0.17 0.14 0.15
0.00 0.01 0.03 0.02 0.02 0.03 0.03 0.02 0.02 0.03 0.05 0.10 0.12 0.11 0.10 0.08 0.05 0.07 0.06 0.07 0.08 0.12 0.17 0.21 0.19 0.17 0.18 0.17 0.16 0.18 0.18 0.17 0.18 0.18 0.18 0.18 0.19 0.16 0.11 0.12 0.19 0.15 0.15 0.13

GFSNW_prec_precacc12_081.txt.gz
Total_Precipitation_Accumulation
0.04 0.04 0.04 0.05 0.04 0.08 0.24 0.48 0.49 0.15 0.12 0.34 0.35 0.16 0.01 0.00 0.00 0.00 0.00 0.00 0.00 0.00 0.00 0.00 0.00 0.01 0.00 0.00 0.00 0.00 0.00 0.00 0.00 0.00 0.00 0.00 0.00 0.00 0.00 0.00 0.00 0.00 0.00 0.00
0.03 0.02 0.03 0.04 0.05 0.12 0.34 0.61 0.40 0.33 0.22 0.21 0.13 0.10 0.02 0.00 0.00 0.00 0.00 0.00 0.00 0.00 0.00 0.00 0.00 0.00 0.00 0.00 0.00 0.00 0.00 0.00 0.00 0.02 0.00 0.00 0.00 0.00 0.00 0.00 0.00 0.01 0.01 0.00
0.03 0.03 0.03 0.04 0.05 0.11 0.47 0.78 0.50 0.58 0.69 0.20 0.04 0.06 0.03 0.01 0.00 0.00 0.00 0.00 0.00 0.00 0.00 0.00 0.00 0.00 0.00 0.00 0.00 0.00 0.00 0.02 0.02 0.03 0.01 0.00 0.00 0.00 0.00 0.00 0.00 0.00 0.00 0.00
0.01 0.01 0.03 0.05 0.08 0.17 0.65 0.98 0.49 0.25 0.34 0.21 0.09 0.05 0.05 0.01 0.00 0.00 0.00 0.00 0.00 0.00 0.00 0.00 0.00 0.00 0.00 0.00 0.00 0.00 0.00 0.00 0.01 0.02 0.01 0.00 0.00 0.00 0.00 0.00 0.00 0.00 0.00 0.00
0.02 0.02 0.02 0.04 0.10 0.28 0.76 0.86 0.26 0.15 0.11 0.09 0.12 0.15 0.14 0.02 0.00 0.00 0.00 0.00 0.00 0.00 0.00 0.00 0.00 0.00 0.00 0.00 0.00 0.00 0.00 0.00 0.00 0.00 0.00 0.00 0.00 0.00 0.00 0.00 0.00 0.00 0.00 0.00
0.09 0.05 0.04 0.03 0.08 0.34 0.77 0.51 0.14 0.20 0.14 0.06 0.25 0.28 0.06 0.03 0.02 0.02 0.00 0.00 0.01 0.01 0.00 0.00 0.00 0.00 0.00 0.00 0.00 0.00 0.01 0.01 0.00 0.01 0.00 0.00 0.00 0.00 0.00 0.00 0.00 0.00 0.00 0.00
0.16 0.13 0.08 0.07 0.08 0.26 0.47 0.21 0.08 0.20 0.23 0.13 0.06 0.05 0.06 0.06 0.05 0.04 0.01 0.00 0.00 0.01 0.00 0.00 0.00 0.00 0.00 0.00 0.01 0.02 0.02 0.02 0.02 0.01 0.01 0.01 0.00 0.00 0.00 0.00 0.00 0.00 0.00 0.00
0.21 0.23 0.19 0.14 0.13 0.21 0.32 0.24 0.14 0.10 0.14 0.10 0.06 0.04 0.05 0.05 0.05 0.04 0.02 0.01 0.00 0.01 0.03 0.04 0.02 0.01 0.01 0.00 0.00 0.01 0.02 0.02 0.06 0.03 0.00 0.00 0.00 0.00 0.00 0.00 0.00 0.00 0.00 0.00
0.14 0.20 0.26 0.24 0.22 0.24 0.36 0.29 0.20 0.21 0.21 0.10 0.01 0.03 0.04 0.05 0.06 0.08 0.03 0.04 0.02 0.04 0.10 0.11 0.07 0.04 0.01 0.02 0.01 0.01 0.01 0.02 0.05 0.07 0.04 0.00 0.00 0.00 0.00 0.00 0.00 0.00 0.00 0.00
0.10 0.15 0.25 0.30 0.31 0.34 0.45 0.44 0.24 0.39 0.36 0.09 0.04 0.02 0.04 0.05 0.09 0.15 0.06 0.10 0.09 0.12 0.16 0.15 0.07 0.04 0.01 0.01 0.06 0.02 0.03 0.05 0.05 0.05 0.06 0.01 0.00 0.00 0.01 0.02 0.01 0.00 0.00 0.00
0.09 0.10 0.15 0.29 0.38 0.38 0.60 0.53 0.19 0.28 0.36 0.16 0.04 0.03 0.05 0.04 0.09 0.18 0.09 0.23 0.19 0.19 0.16 0.07 0.05 0.03 0.01 0.00 0.03 0.03 0.04 0.05 0.05 0.05 0.05 0.01 0.00 0.05 0.07 0.05 0.01 0.00 0.00 0.00
0.10 0.09 0.09 0.15 0.32 0.42 0.62 0.75 0.26 0.24 0.35 0.26 0.11 0.03 0.02 0.04 0.05 0.12 0.15 0.05 0.03 0.02 0.05 0.04 0.04 0.03 0.02 0.01 0.01 0.01 0.04 0.01 0.04 0.02 0.01 0.01 0.02 0.02 0.02 0.04 0.04 0.03 0.01 0.00
0.14 0.14 0.12 0.12 0.20 0.38 0.65 0.68 0.24 0.43 0.67 0.31 0.14 0.07 0.00 0.01 0.03 0.05 0.08 0.03 0.05 0.05 0.03 0.07 0.05 0.03 0.01 0.01 0.00 0.00 0.00 0.00 0.03 0.06 0.02 0.01 0.01 0.01 0.00 0.00 0.00 0.00 0.00 0.00
0.17 0.22 0.20 0.14 0.17 0.36 0.71 0.50 0.20 0.24 0.36 0.24 0.09 0.02 0.06 0.03 0.02 0.03 0.01 0.04 0.09 0.12 0.12 0.08 0.07 0.03 0.01 0.01 0.00 0.00 0.00 0.00 0.00 0.00 0.01 0.00 0.01 0.00 0.00 0.00 0.00 0.00 0.00 0.00
0.21 0.29 0.28 0.22 0.26 0.54 0.71 0.38 0.17 0.08 0.12 0.18 0.04 0.02 0.00 0.04 0.06 0.05 0.05 0.08 0.13 0.16 0.17 0.10 0.06 0.05 0.05 0.03 0.03 0.01 0.01 0.01 0.01 0.02 0.01 0.00 0.01 0.00 0.00 0.00 0.01 0.01 0.01 0.01
0.22 0.34 0.36 0.30 0.48 0.73 0.75 1.03 0.68 0.15 0.13 0.13 0.10 0.04 0.02 0.01 0.03 0.07 0.06 0.11 0.21 0.23 0.18 0.11 0.07 0.06 0.13 0.08 0.04 0.02 0.01 0.00 0.00 0.00 0.00 0.00 0.01 0.02 0.01 0.01 0.01 0.00 0.00 0.01
0.28 0.44 0.41 0.41 0.52 0.35 0.31 0.30 0.31 0.13 0.11 0.09 0.10 0.08 0.05 0.03 0.07 0.18 0.28 0.30 0.32 0.25 0.21 0.08 0.08 0.08 0.16 0.22 0.20 0.07 0.01 0.00 0.00 0.00 0.00 0.01 0.02 0.02 0.01 0.01 0.01 0.02 0.01 0.01
0.43 0.51 0.41 0.53 0.47 0.44 0.23 0.02 0.00 0.02 0.12 0.10 0.21 0.34 0.20 0.09 0.10 0.23 0.31 0.49 0.43 0.42 0.33 0.14 0.06 0.11 0.16 0.21 0.05 0.01 0.01 0.01 0.01 0.04 0.04 0.02 0.01 0.01 0.02 0.01 0.02 0.03 0.04 0.05
0.60 0.65 0.87 1.05 0.64 0.47 0.16 0.07 0.05 0.07 0.11 0.12 0.18 0.41 0.54 0.17 0.13 0.13 0.27 0.30 0.42 0.31 0.19 0.14 0.13 0.11 0.12 0.09 0.02 0.01 0.00 0.00 0.00 0.01 0.02 0.03 0.02 0.02 0.02 0.02 0.02 0.02 0.01 0.02
0.63 0.65 0.82 0.95 0.40 0.10 0.15 0.30 0.32 0.31 0.19 0.08 0.16 0.18 0.29 0.22 0.14 0.14 0.25 0.18 0.19 0.18 0.15 0.09 0.16 0.13 0.08 0.03 0.01 0.00 0.01 0.00 0.01 0.01 0.00 0.01 0.03 0.04 0.03 0.05 0.07 0.07 0.07 0.05
0.24 0.38 0.56 0.52 0.16 0.05 0.18 0.39 0.29 0.20 0.10 0.10 0.19 0.13 0.17 0.14 0.08 0.08 0.16 0.19 0.14 0.12 0.13 0.15 0.14 0.08 0.05 0.02 0.00 0.00 0.00 0.00 0.00 0.01 0.01 0.02 0.02 0.03 0.05 0.05 0.06 0.06 0.08 0.11
0.07 0.19 0.30 0.21 0.12 0.15 0.13 0.11 0.11 0.08 0.11 0.09 0.10 0.12 0.12 0.22 0.10 0.10 0.13 0.18 0.12 0.12 0.14 0.14 0.07 0.07 0.02 0.00 0.01 0.00 0.01 0.01 0.01 0.01 0.02 0.02 0.02 0.03 0.04 0.05 0.08 0.10 0.11 0.14
0.00 0.01 0.01 0.01 0.01 0.01 0.02 0.03 0.03 0.04 0.04 0.05 0.07 0.09 0.15 0.14 0.06 0.05 0.04 0.07 0.16 0.15 0.12 0.09 0.05 0.04 0.01 0.01 0.01 0.01 0.02 0.02 0.02 0.03 0.03 0.03 0.04 0.04 0.04 0.05 0.08 0.08 0.10 0.16
0.00 0.00 0.00 0.00 0.00 0.02 0.03 0.04 0.03 0.05 0.04 0.04 0.04 0.02 0.07 0.02 0.01 0.04 0.04 0.07 0.08 0.13 0.09 0.04 0.05 0.05 0.05 0.05 0.04 0.04 0.05 0.05 0.05 0.06 0.06 0.06 0.06 0.07 0.09 0.10 0.12 0.09 0.12 0.17
0.00 0.00 0.01 0.02 0.05 0.05 0.05 0.05 0.05 0.05 0.05 0.05 0.03 0.02 0.03 0.02 0.03 0.02 0.02 0.04 0.03 0.02 0.03 0.05 0.07 0.08 0.07 0.08 0.09 0.08 0.08 0.08 0.09 0.10 0.09 0.11 0.11 0.09 0.11 0.14 0.14 0.11 0.13 0.14
0.00 0.01 0.02 0.02 0.03 0.05 0.04 0.04 0.05 0.06 0.05 0.07 0.07 0.03 0.02 0.04 0.03 0.01 0.01 0.01 0.01 0.04 0.04 0.06 0.06 0.06 0.07 0.09 0.10 0.12 0.13 0.12 0.13 0.13 0.13 0.14 0.14 0.13 0.15 0.15 0.15 0.16 0.14 0.14
0.00 0.01 0.03 0.02 0.03 0.04 0.03 0.03 0.02 0.03 0.05 0.09 0.10 0.08 0.07 0.06 0.04 0.04 0.04 0.05 0.06 0.08 0.10 0.12 0.12 0.12 0.12 0.12 0.12 0.13 0.14 0.13 0.15 0.15 0.16 0.16 0.17 0.15 0.12 0.12 0.18 0.16 0.15 0.14